Location: LDNL
(36.4545°S, 141.6685°E)
Time: 08:30:39
(UTC+11:00)

Envisat - Visible Passes

Search period start: 02 December 2021 00:00
Search period end: 12 December 2021 00:00
Orbit: 764 x 766 km, 98.2° (Epoch: 01 December)

Date Brightness Start Highest point End Pass type
(mag) Time Alt. Az. Time Alt. Az. Time Alt. Az.
02 Dec 5.4 04:51:39 10° ENE 04:55:49 26° ESE 05:00:00 10° SSE visible
03 Dec 6.2 04:17:42 10° E 04:19:24 12° ESE 04:21:07 10° SE visible
04 Dec 4.3 05:16:06 10° NE 05:20:55 45° ESE 05:25:49 10° S visible
05 Dec 5.8 04:40:41 10° ENE 04:44:23 21° ESE 04:48:06 10° SSE visible
07 Dec 4.8 05:04:50 10° NE 05:09:27 35° ESE 05:14:06 10° S visible
08 Dec 5.9 04:29:53 10° ENE 04:32:57 16° ESE 04:36:02 10° SSE visible
09 Dec 3.6 05:29:35 10° NNE 05:34:37 63° ESE 05:39:42 10° S visible
10 Dec 5.3 04:53:42 10° NE 04:57:59 28° ESE 05:02:18 10° SSE visible
11 Dec 6.1 04:19:26 10° E 04:21:33 13° ESE 04:23:40 10° SE visible
